Temp
-3 -3 -3 -3 -3 -3 -3 -2 -2 -2 -2 -2 -2 -2 -2 -2 -3 -3 -3 -3 -4 -5 -5 -6 -6 -7 -8 -8 -8 -7 -9 -9 -7 -6 -6 -6 -5 -6 -6 -6 -7 -7 -6 -6 -8
-3 -3 -3 -3 -3 -3 -3 -3 -3 -2 -2 -2 -2 -2 -2 -2 -2 -2 -3 -3 -4 -4 -5 -6 -6 -7 -7 -8 -8 -8 -9 -9 -7 -6 -6 -6 -6 -6 -6 -6 -7 -7 -7 -7 -7
-3 -3 -3 -3 -3 -3 -3 -3 -3 -3 -2 -2 -2 -2 -2 -3 -2 -2 -3 -3 -3 -3 -4 -5 -5 -6 -7 -7 -7 -8 -8 -7 -7 -6 -6 -6 -6 -6 -6 -6 -6 -7 -7 -7 -8
-4 -3 -3 -3 -3 -3 -3 -3 -3 -3 -3 -2 -2 -2 -2 -2 -2 -2 -2 -3 -3 -4 -4 -4 -5 -5 -6 -7 -7 -8 -7 -7 -6 -6 -6 -6 -6 -6 -6 -6 -7 -7 -6 -8 -7
-4 -4 -4 -4 -3 -3 -3 -3 -3 -3 -3 -3 -2 -2 -2 -2 -2 -2 -2 -3 -3 -3 -4 -4 -5 -6 -6 -7 -7 -7 -7 -6 -7 -6 -6 -6 -6 -6 -6 -6 -6 -7 -7 -7 -7
-4 -4 -4 -4 -4 -3 -3 -3 -3 -3 -3 -3 -3 -3 -2 -2 -2 -3 -2 -2 -2 -3 -4 -4 -4 -6 -6 -7 -7 -7 -6 -6 -7 -6 -6 -6 -6 -6 -6 -6 -6 -6 -7 -7 -7
-4 -4 -4 -4 -4 -3 -3 -3 -3 -3 -3 -3 -3 -3 -3 -2 -2 -2 -2 -2 -2 -3 -4 -5 -5 -5 -6 -6 -6 -7 -6 -6 -6 -6 -6 -6 -6 -6 -6 -6 -6 -6 -7 -7 -6
-4 -4 -4 -4 -4 -3 -3 -4 -4 -4 -4 -3 -4 -4 -3 -3 -3 -3 -3 -3 -3 -3 -4 -4 -5 -5 -6 -6 -6 -7 -6 -7 -6 -6 -6 -6 -7 -6 -6 -6 -6 -6 -6 -6 -6
-4 -4 -4 -4 -4 -3 -3 -3 -4 -4 -4 -4 -3 -3 -3 -3 -3 -3 -3 -3 -3 -3 -3 -4 -4 -5 -5 -6 -6 -6 -8 -8 -6 -6 -6 -6 -7 -6 -6 -6 -6 -6 -6 -6 -6
-4 -4 -4 -4 -4 -4 -3 -3 -3 -4 -4 -4 -4 -4 -3 -3 -3 -4 -3 -3 -3 -3 -3 -4 -5 -4 -5 -6 -6 -6 -6 -8 -7 -6 -6 -6 -6 -6 -5 -5 -6 -6 -6 -6 -6
-4 -4 -4 -4 -4 -4 -4 -4 -4 -3 -4 -4 -4 -4 -4 -3 -3 -4 -4 -4 -4 -3 -3 -3 -3 -3 -4 -6 -7 -8 -7 -8 -8 -7 -7 -6 -6 -6 -5 -5 -5 -5 -5 -6 -5
-4 -4 -4 -4 -4 -4 -4 -4 -4 -4 -4 -4 -4 -4 -3 -3 -3 -4 -4 -4 -4 -4 -4 -3 -2 -5 -5 -6 -7 -7 -8 -8 -8 -7 -7 -7 -6 -6 -6 -5 -5 -5 -5 -5 -5
-4 -4 -4 -4 -4 -4 -4 -5 -4 -4 -4 -4 -3 -4 -3 -3 -3 -4 -4 -4 -4 -5 -4 -4 -4 -5 -5 -6 -7 -7 -7 -8 -8 -7 -7 -7 -7 -6 -6 -6 -5 -5 -6 -6 -6
-4 -4 -5 -4 -4 -4 -4 -4 -4 -4 -4 -4 -4 -3 -4 -4 -4 -3 -4 -4 -4 -5 -5 -5 -5 -5 -5 -6 -6 -7 -7 -7 -8 -8 -7 -7 -7 -7 -6 -6 -5 -6 -7 -6 -6
-4 -4 -5 -5 -5 -5 -5 -5 -5 -5 -5 -4 -4 -4 -4 -4 -4 -4 -4 -4 -4 -5 -5 -4 -4 -4 -5 -4 -6 -6 -8 -7 -8 -8 -8 -8 -7 -7 -7 -6 -6 -7 -7 -7 -6
-5 -5 -5 -5 -5 -5 -5 -6 -5 -6 -4 -5 -4 -5 -5 -5 -5 -5 -4 -5 -5 -5 -5 -6 -5 -4 -5 -6 -6 -6 -8 -7 -8 -8 -8 -8 -8 -7 -7 -6 -7 -7 -7 -7 -7
-5 -5 -5 -6 -6 -5 -6 -6 -6 -5 -4 -5 -6 -5 -6 -5 -5 -5 -5 -5 -5 -5 -5 -5 -5 -5 -6 -6 -7 -7 -7 -8 -9 -8 -8 -7 -8 -6 -7 -7 -7 -7 -7 -7 -7
-6 -6 -6 -6 -6 -6 -6 -6 -5 -5 -5 -6 -6 -6 -6 -6 -6 -6 -6 -5 -5 -5 -6 -5 -6 -5 -5 -6 -6 -6 -6 -8 -8 -8 -8 -8 -7 -4 -6 -7 -7 -7 -7 -7 -7
-7 -7 -7 -7 -7 -8 -7 -6 -5 -6 -6 -7 -7 -7 -7 -7 -7 -7 -6 -6 -5 -6 -6 -6 -5 -6 -6 -6 -7 -6 -7 -8 -8 -8 -8 -8 -7 -6 -6 -7 -7 -7 -7 -7 -7
-8 -8 -7 -7 -8 -8 -8 -6 -6 -7 -6 -8 -8 -8 -8 -7 -8 -7 -7 -6 -6 -6 -7 -7 -7 -7 -6 -7 -7 -8 -6 -8 -8 -8 -8 -8 -8 -6 -7 -7 -7 -7 -7 -7 -7
-8 -9 -9 -8 -8 -8 -7 -7 -8 -7 -8 -9 -8 -9 -9 -8 -8 -8 -7 -7 -7 -7 -7 -8 -7 -8 -8 -6 -6 -8 -8 -8 -9 -8 -8 -8 -7 -6 -6 -7 -7 -7 -7 -7 -7
-9 -9 -10 -10 -10 -9 -9 -9 -9 -9 -9 -9 -9 -9 -9 -9 -8 -9 -8 -8 -7 -8 -7 -8 -11 -9 -7 -7 -7 -8 -8 -8 -8 -8 -9 -8 -7 -8 -7 -7 -7 -7 -8 -7 -7
-12 -12 -12 -12 -11 -12 -11 -11 -10 -10 -10 -11 -10 -10 -10 -10 -9 -9 -9 -9 -8 -9 -9 -10 -10 -11 -10 -10 -9 -9 -8 -8 -9 -8 -9 -9 -8 -8 -7 -5 -6 -6 -7 -7 -6
-17 -16 -15 -15 -15 -14 -13 -12 -12 -12 -12 -11 -11 -11 -10 -11 -10 -10 -10 -10 -10 -10 -10 -9 -10 -10 -10 -8 -8 -8 -8 -9 -10 -9 -9 -9 -8 -8 -9 -6 -6 -6 -7 -7 -7
-20 -19 -19 -18 -18 -17 -16 -14 -14 -13 -13 -13 -12 -11 -11 -11 -11 -10 -10 -10 -11 -11 -11 -10 -10 -11 -10 -11 -11 -11 -9 -8 -9 -9 -10 -9 -9 -9 -9 -6 -6 -7 -7 -7 -7
-22 -21 -21 -21 -20 -20 -19 -17 -16 -15 -15 -14 -14 -13 -13 -12 -11 -12 -11 -11 -12 -12 -11 -10 -10 -10 -10 -10 -11 -11 -11 -11 -10 -8 -8 -8 -8 -9 -9 -7 -6 -6 -7 -8 -8
-24 -23 -22 -22 -21 -21 -20 -19 -19 -18 -16 -16 -15 -14 -13 -13 -13 -12 -12 -11 -12 -13 -12 -12 -10 -11 -10 -11 -11 -11 -11 -11 -11 -9 -8 -7 -7 -7 -7 -6 -6 -6 -7 -7 -8
Height
5893 5892 5891 5890 5889 5889 5889 5889 5889 5890 5891 5892 5892 5893 5894 5894 5894 5894 5893 5894 5896 5899 5902 5905 5907 5909 5910 5911 5911 5912 5913 5917 5913 5912 5911 5911 5910 5910 5909 5908 5908 5909 5910 5908 5910
5892 5891 5890 5889 5888 5887 5887 5886 5886 5886 5887 5888 5889 5890 5891 5892 5892 5892 5893 5894 5895 5897 5900 5903 5906 5907 5910 5911 5912 5913 5916 5917 5914 5913 5912 5911 5911 5911 5910 5909 5909 5909 5910 5909 5910
5891 5890 5889 5888 5886 5885 5885 5885 5883 5883 5883 5884 5885 5887 5888 5889 5890 5890 5891 5892 5894 5896 5898 5901 5904 5907 5909 5911 5912 5913 5916 5915 5914 5914 5913 5911 5911 5911 5911 5911 5910 5910 5909 5909 5910
5888 5887 5886 5886 5885 5884 5883 5882 5881 5880 5880 5880 5880 5883 5884 5885 5887 5887 5889 5891 5893 5895 5897 5900 5902 5905 5908 5911 5912 5914 5914 5914 5914 5913 5913 5912 5911 5912 5912 5911 5909 5910 5909 5908 5910
5886 5885 5884 5883 5882 5881 5881 5879 5878 5878 5876 5877 5877 5878 5879 5881 5882 5885 5887 5888 5890 5892 5895 5899 5902 5903 5906 5910 5912 5913 5915 5914 5914 5914 5914 5913 5912 5912 5912 5911 5910 5910 5911 5909 5910
5883 5882 5881 5880 5879 5878 5878 5877 5876 5875 5874 5873 5874 5874 5874 5875 5880 5881 5884 5886 5887 5889 5892 5895 5900 5902 5903 5906 5910 5912 5913 5913 5913 5914 5914 5913 5913 5913 5913 5912 5911 5910 5911 5912 5912
5879 5878 5878 5877 5876 5875 5874 5874 5873 5872 5871 5870 5870 5870 5869 5872 5874 5876 5879 5883 5885 5887 5889 5892 5894 5899 5903 5904 5907 5910 5911 5912 5913 5915 5914 5913 5914 5913 5912 5912 5911 5911 5912 5913 5914
5877 5875 5874 5873 5872 5872 5871 5870 5869 5869 5868 5867 5866 5866 5865 5867 5868 5872 5874 5878 5881 5883 5885 5887 5890 5894 5898 5902 5906 5907 5910 5911 5913 5914 5914 5914 5915 5914 5913 5912 5912 5913 5913 5915 5916
5872 5871 5870 5870 5868 5867 5867 5866 5866 5865 5864 5864 5863 5862 5863 5863 5866 5865 5868 5872 5875 5879 5881 5883 5887 5890 5894 5899 5903 5905 5909 5911 5912 5913 5913 5913 5911 5913 5912 5912 5912 5913 5914 5916 5916
5867 5866 5864 5864 5863 5863 5862 5861 5861 5861 5860 5859 5859 5859 5859 5860 5861 5861 5864 5866 5869 5873 5877 5878 5883 5887 5890 5894 5898 5905 5907 5910 5910 5912 5912 5912 5912 5912 5912 5912 5913 5913 5915 5916 5917
5860 5860 5858 5858 5857 5857 5856 5856 5857 5856 5854 5855 5855 5854 5853 5855 5856 5857 5859 5861 5864 5867 5870 5874 5877 5880 5887 5892 5898 5905 5906 5909 5910 5909 5910 5910 5911 5912 5911 5912 5913 5913 5914 5915 5917
5851 5852 5850 5850 5850 5850 5849 5848 5848 5849 5851 5848 5847 5849 5847 5849 5850 5851 5853 5856 5858 5863 5864 5868 5872 5879 5884 5889 5893 5898 5902 5906 5909 5906 5908 5909 5910 5910 5910 5910 5912 5913 5914 5915 5916
5841 5842 5842 5841 5841 5842 5841 5841 5840 5840 5841 5842 5842 5842 5841 5843 5844 5845 5847 5849 5852 5854 5858 5864 5871 5873 5876 5882 5887 5892 5896 5902 5907 5904 5905 5906 5907 5908 5908 5908 5909 5910 5912 5913 5915
5832 5832 5832 5830 5832 5831 5832 5832 5831 5831 5831 5836 5832 5834 5836 5836 5837 5837 5840 5842 5844 5848 5853 5856 5861 5864 5870 5875 5882 5887 5894 5897 5901 5900 5902 5904 5909 5908 5907 5907 5908 5909 5910 5912 5913
5822 5821 5821 5820 5819 5819 5821 5821 5821 5822 5822 5823 5824 5824 5826 5829 5830 5830 5832 5833 5837 5840 5843 5849 5855 5859 5862 5869 5876 5884 5888 5890 5895 5896 5900 5899 5901 5906 5905 5906 5907 5907 5908 5909 5910
5808 5807 5808 5808 5807 5807 5808 5809 5810 5813 5807 5811 5815 5815 5817 5820 5821 5821 5824 5826 5828 5830 5833 5839 5846 5849 5857 5863 5870 5878 5877 5881 5885 5891 5891 5897 5896 5899 5902 5904 5904 5904 5903 5905 5906
5791 5791 5791 5792 5793 5792 5792 5794 5797 5794 5798 5799 5803 5805 5806 5809 5811 5812 5814 5817 5820 5822 5825 5830 5832 5842 5848 5852 5860 5865 5871 5874 5877 5878 5882 5892 5889 5893 5898 5901 5902 5902 5902 5901 5901
5773 5773 5773 5775 5775 5776 5777 5779 5779 5782 5787 5788 5791 5795 5796 5797 5800 5803 5804 5807 5810 5812 5813 5819 5820 5830 5835 5840 5851 5854 5863 5865 5869 5874 5879 5881 5877 5886 5894 5894 5895 5897 5898 5898 5899
5752 5752 5754 5755 5757 5757 5758 5758 5764 5770 5772 5775 5778 5780 5783 5785 5788 5790 5794 5797 5800 5803 5806 5808 5813 5820 5825 5833 5841 5848 5845 5862 5870 5872 5874 5876 5876 5880 5886 5887 5889 5892 5895 5896 5898
5730 5730 5732 5733 5734 5735 5736 5743 5746 5751 5756 5758 5762 5766 5770 5772 5774 5777 5780 5786 5789 5792 5795 5797 5801 5808 5813 5821 5830 5835 5849 5850 5854 5861 5863 5868 5872 5875 5879 5883 5885 5888 5891 5894 5894
5700 5701 5705 5706 5707 5709 5713 5721 5726 5729 5737 5740 5744 5750 5754 5757 5760 5765 5770 5772 5777 5781 5784 5788 5791 5799 5801 5805 5818 5824 5827 5834 5849 5851 5856 5860 5863 5869 5873 5876 5880 5884 5888 5890 5890
5668 5671 5676 5675 5680 5683 5690 5697 5702 5708 5715 5720 5724 5733 5737 5742 5745 5752 5757 5761 5763 5769 5772 5777 5781 5787 5791 5801 5807 5815 5819 5828 5831 5838 5843 5851 5858 5866 5867 5871 5874 5877 5880 5882 5884
5632 5636 5639 5642 5650 5656 5664 5670 5675 5684 5691 5699 5706 5714 5722 5727 5732 5737 5742 5748 5751 5758 5762 5767 5770 5776 5784 5788 5791 5799 5806 5817 5823 5833 5831 5838 5845 5857 5855 5862 5867 5871 5874 5875 5877
5606 5608 5609 5613 5617 5626 5632 5641 5652 5660 5668 5677 5686 5694 5702 5708 5715 5722 5729 5735 5740 5746 5751 5757 5761 5766 5774 5782 5788 5788 5794 5803 5813 5814 5823 5825 5840 5845 5848 5851 5859 5863 5867 5870 5871
5582 5584 5586 5591 5592 5596 5605 5616 5625 5636 5646 5657 5666 5674 5684 5692 5700 5708 5716 5723 5729 5734 5743 5748 5753 5757 5764 5774 5780 5783 5784 5791 5794 5802 5807 5821 5824 5832 5839 5842 5849 5854 5858 5861 5864
5560 5564 5569 5574 5575 5578 5581 5594 5600 5610 5618 5636 5649 5657 5666 5675 5685 5695 5701 5708 5719 5724 5731 5737 5743 5749 5754 5762 5768 5773 5777 5780 5783 5791 5795 5805 5808 5822 5827 5833 5837 5844 5849 5852 5857
5543 5545 5548 5558 5561 5566 5572 5575 5579 5583 5601 5613 5619 5631 5646 5656 5661 5670 5679 5688 5704 5712 5718 5726 5732 5739 5744 5752 5758 5760 5766 5772 5774 5778 5785 5786 5798 5810 5815 5820 5828 5835 5840 5844 5849
Wind_Speed
15 15 15 15 14 13 13 14 15 16 14 11 9 7 6 3 4 4 7 7 16 21 22 20 14 18 17 18 15 13 12 5 10 12 12 11 11 13 13 14 12 6 8 15 11
14 14 14 15 16 16 15 13 14 16 17 15 14 11 9 8 6 4 4 9 12 22 22 20 23 20 19 16 11 10 11 6 6 7 10 11 11 11 12 12 13 11 9 13 13
13 13 13 14 14 15 16 16 16 13 15 18 18 15 12 13 10 6 6 9 15 19 25 27 22 20 18 14 10 10 10 7 5 6 7 9 11 9 9 11 10 10 13 13 12
13 12 13 15 16 17 16 16 16 17 14 14 19 20 18 16 17 11 9 8 13 17 22 24 20 15 13 17 16 15 9 9 8 9 7 8 10 9 8 10 11 8 8 13 13
13 13 14 14 15 16 15 16 16 16 17 15 15 18 22 21 22 13 12 12 13 18 19 22 20 18 15 19 22 16 11 7 9 10 10 9 9 9 8 8 11 10 7 14 15
14 14 13 15 17 17 16 13 15 17 17 18 16 15 19 27 22 20 17 14 12 18 22 24 20 20 21 24 24 16 11 7 9 12 12 12 10 11 10 9 9 12 9 11 15
16 16 17 17 18 17 15 15 17 17 18 18 18 15 19 20 26 25 22 18 15 19 22 28 27 23 21 24 25 19 12 9 12 14 14 13 11 10 11 9 10 10 10 9 11
14 15 17 17 18 19 18 18 17 17 17 18 18 18 20 18 20 26 28 24 21 21 26 31 31 27 27 26 22 20 15 11 14 17 14 14 11 11 11 12 11 9 9 9 10
19 19 19 17 18 19 20 20 20 19 18 18 19 19 20 21 18 25 30 30 27 25 28 31 34 31 29 25 24 20 14 14 17 19 18 15 15 12 12 13 13 11 10 9 11
24 25 26 23 23 23 22 21 21 20 20 20 19 20 21 19 20 20 28 33 32 30 31 33 36 30 31 31 27 19 15 17 19 20 18 16 14 13 13 14 13 13 12 10 9
30 30 31 28 28 27 26 25 23 21 21 23 23 23 21 20 20 21 22 32 36 36 34 34 33 29 26 29 24 21 18 18 20 22 21 19 16 15 14 13 12 12 13 10 9
34 33 35 34 34 32 30 29 27 26 22 24 24 21 25 22 19 20 23 27 36 38 39 38 33 33 33 33 32 28 23 22 23 25 24 21 19 17 15 14 14 10 8 8 7
39 39 37 36 36 36 35 33 31 30 29 27 26 25 25 24 23 22 22 26 31 41 42 38 35 39 39 35 35 33 30 26 24 27 27 26 24 20 16 16 15 13 11 11 8
39 39 38 40 40 38 35 37 37 35 34 30 33 31 28 27 25 26 24 25 30 36 42 44 44 45 39 37 34 34 29 31 28 31 29 26 20 19 19 19 17 14 12 11 9
42 45 44 43 44 43 40 39 39 37 38 35 34 32 31 30 28 26 26 27 27 31 44 47 45 42 45 40 37 32 36 37 30 32 28 29 29 23 25 22 19 17 15 13 11
44 45 47 48 48 47 47 45 42 42 46 39 34 35 32 30 30 31 28 26 28 34 37 45 49 50 47 46 41 36 39 42 35 33 38 32 31 25 23 19 21 21 20 17 16
51 49 48 51 52 51 51 50 48 48 44 42 37 37 37 36 36 35 33 33 28 29 36 42 51 51 52 52 50 46 42 39 38 39 37 33 40 34 25 20 20 23 20 19 19
53 50 50 52 53 54 54 55 54 52 44 46 44 40 39 38 37 37 37 36 34 31 36 39 49 53 55 56 52 50 45 41 40 35 34 39 38 33 27 25 28 30 25 23 22
56 55 53 56 58 57 58 60 57 53 52 47 46 47 46 44 41 41 41 40 37 34 35 39 43 47 57 58 57 54 58 45 33 33 34 31 35 36 31 28 30 32 30 23 19
60 60 60 61 62 62 63 60 60 57 53 51 51 51 49 47 46 46 45 43 40 37 36 38 42 47 54 59 59 61 51 54 46 42 40 36 32 28 29 29 32 30 27 22 18
70 65 63 64 67 69 67 64 63 64 58 56 54 54 52 51 52 47 45 46 41 39 36 36 40 41 53 60 61 65 67 60 46 45 40 36 35 30 32 32 32 25 25 24 25
74 70 65 65 68 71 69 69 70 68 63 62 58 57 56 51 55 48 48 46 47 43 41 38 35 43 48 54 59 64 68 67 61 54 47 44 36 26 28 35 33 29 24 26 31
66 66 64 62 65 67 68 70 71 70 66 62 60 60 58 54 53 50 51 51 49 43 43 37 41 35 42 43 53 63 62 68 60 60 53 48 44 35 35 32 30 27 24 25 28
58 61 63 64 66 66 67 70 68 69 64 63 61 62 62 57 53 53 52 52 51 47 45 42 41 41 39 44 45 62 67 64 55 58 55 54 38 38 39 46 34 26 21 17 24
57 61 61 59 58 62 63 66 67 68 66 63 63 62 61 57 55 52 54 53 51 48 44 45 44 44 42 35 34 39 49 69 73 69 61 52 52 48 44 42 36 35 31 26 20
57 53 54 53 52 56 57 60 63 64 67 66 62 59 58 57 56 51 55 57 52 49 48 47 46 44 43 41 42 38 41 44 54 76 78 74 70 48 47 54 47 36 36 32 25
44 50 51 50 50 47 52 53 57 62 62 59 65 66 64 59 61 59 61 62 56 54 53 49 48 43 44 36 37 41 42 42 49 60 64 73 71 67 68 59 46 39 38 33 26
Wind_Direction
333 320 314 313 315 317 307 288 270 264 263 260 263 260 265 289 272 231 212 160 173 166 167 163 165 141 137 126 120 122 107 121 110 114 114 111 120 127 124 118 118 143 183 140 138
347 339 330 317 310 306 305 308 296 276 264 255 252 254 248 257 264 268 220 164 180 174 175 170 156 151 147 141 130 132 120 158 130 127 126 121 121 127 121 117 121 130 138 133 134
330 342 349 347 337 318 306 302 298 297 277 263 254 247 246 241 251 242 214 191 175 187 183 181 179 176 167 175 189 160 137 170 150 154 143 129 128 122 125 111 102 126 129 134 129
315 322 328 330 334 339 334 309 297 294 291 281 261 250 244 239 241 238 223 213 191 193 193 195 191 190 177 179 179 176 171 179 175 164 153 141 140 137 134 120 107 89 125 134 135
315 313 313 316 318 323 330 335 318 295 292 285 280 261 247 241 244 240 228 223 208 194 198 196 203 200 175 178 180 182 181 188 181 169 161 150 147 141 138 125 121 113 120 130 129
308 305 308 308 315 315 318 325 331 329 304 291 283 275 260 245 245 234 233 229 224 201 195 194 194 190 189 185 192 189 186 194 190 178 169 156 150 148 144 127 120 119 124 136 135
312 308 308 302 309 306 308 306 311 315 319 311 289 282 269 264 245 235 234 228 220 212 199 197 200 207 205 198 203 203 205 204 196 188 174 161 153 148 134 123 111 120 124 137 147
300 301 305 310 313 310 309 303 303 304 306 309 310 290 276 267 250 238 234 226 221 215 207 204 206 208 205 211 205 195 209 221 202 194 175 170 148 155 138 129 122 120 130 141 148
295 294 293 295 299 303 307 304 298 295 298 301 301 301 291 277 260 243 233 226 223 218 216 211 211 208 209 205 207 210 211 202 203 194 181 180 158 161 150 137 131 126 125 141 151
289 288 286 286 286 289 291 296 295 292 291 289 293 294 290 290 275 263 239 230 224 220 219 219 214 216 210 206 207 209 197 216 202 192 194 188 174 170 164 151 148 139 138 139 140
289 287 285 284 282 282 284 284 286 285 281 281 284 285 286 285 290 273 256 237 228 223 220 225 223 221 218 213 199 205 222 207 189 188 193 196 196 187 182 171 168 159 153 152 150
282 283 284 284 283 283 278 281 278 279 279 275 275 277 281 279 283 276 265 247 236 230 224 224 227 222 220 217 211 205 210 202 210 198 196 197 199 194 190 188 192 177 180 166 157
273 275 274 272 274 278 281 279 276 274 273 272 269 267 270 276 273 274 270 256 239 233 231 227 229 222 219 216 215 212 208 204 218 207 208 206 203 195 190 191 192 185 186 184 184
280 277 272 273 273 272 269 270 272 272 271 264 266 267 266 267 265 267 263 254 248 237 234 227 224 225 225 220 211 211 209 207 214 211 213 224 218 210 197 194 196 187 184 197 202
285 284 279 277 278 274 272 268 266 268 270 268 264 261 263 260 263 258 257 253 249 244 235 234 227 227 224 224 216 198 204 210 211 223 217 229 222 216 216 204 195 189 195 203 217
282 282 278 275 273 273 273 271 268 267 264 266 264 264 261 257 257 256 253 250 246 244 240 231 228 225 225 226 219 209 212 206 214 220 230 224 235 222 227 221 203 201 200 205 207
281 278 274 271 269 269 269 267 265 262 266 263 260 258 258 257 256 253 250 251 252 252 250 239 234 225 226 222 220 216 214 213 216 219 224 229 231 220 224 218 219 210 214 213 219
280 277 273 268 265 264 265 264 261 263 262 261 258 257 257 253 252 253 250 247 249 248 240 240 239 228 224 226 224 222 216 213 219 221 228 222 228 231 216 221 213 213 214 223 232
277 273 272 268 264 262 260 260 263 262 258 258 254 250 251 251 247 248 247 247 244 245 243 244 240 234 231 225 219 222 224 217 222 231 232 236 243 237 217 210 213 212 213 220 242
276 271 267 264 261 259 258 260 260 257 257 254 249 249 247 246 245 245 246 246 243 242 239 238 238 234 230 226 223 221 228 224 221 226 234 232 234 232 212 211 207 205 218 219 226
281 276 267 260 255 254 256 255 254 254 249 248 246 242 242 241 243 239 241 242 237 237 235 235 237 233 231 229 223 221 222 227 228 229 229 238 233 233 208 201 201 213 227 227 230
281 275 267 259 253 251 250 250 250 249 246 244 240 238 239 239 242 236 236 237 236 231 232 230 233 223 234 231 228 226 227 229 228 226 231 233 238 242 230 203 208 219 223 232 228
274 268 260 252 249 246 245 245 244 244 242 239 238 237 239 241 239 236 235 234 237 231 231 224 223 232 227 230 228 224 229 227 231 232 236 241 240 225 241 221 218 215 228 239 237
258 249 244 241 239 238 239 238 239 238 235 232 233 232 234 237 235 233 233 232 233 229 229 230 227 232 235 240 236 232 229 226 225 232 233 234 240 234 239 241 235 227 211 237 234
256 250 246 243 238 234 231 231 231 231 230 229 229 229 232 236 236 232 228 230 229 231 228 229 231 229 231 221 228 231 238 233 232 234 233 236 235 236 231 242 236 239 240 237 234
259 258 252 243 240 234 229 224 223 223 224 224 226 229 231 233 232 226 227 227 222 226 230 230 230 234 237 234 231 229 234 234 238 238 242 242 243 237 247 243 243 235 241 248 254
262 260 260 251 247 244 236 229 228 226 221 220 222 220 224 226 223 220 219 221 211 216 225 227 230 229 235 237 237 239 236 239 242 244 242 243 247 247 246 252 247 241 238 240 240